Regional Weather Roundup
Issued by NWS

Home | Current Version | Previous Version | Text Only | Print | Product List | Glossary Off
Versions: 1 2 3 4 5 6 7 8 9 10 11 12 13 14 15 16 17 18 19 20 21 22 23 24 25 26 27 28 29 30 31 32 33 34 35 36 37 38 39 40 41 42 43 44 45 46 47 48 49 50

000
ASUS45 KBOU 250907
RWRCO

WEATHER ROUNDUP FOR COLORADO
NATIONAL WEATHER SERVICE DENVER/BOULDER CO
200 AM MST TUE NOV 25 2014

NOTE: "FAIR" INDICATES FEW OR NO CLOUDS BELOW 12000 FEET WITH NO
SIGNIFICANT WEATHER AND/OR OBSTRUCTIONS TO VISIBILITY.

COZ001>005-013-030-031-251000-
...NORTHWEST COLORADO...

CITY           SKY/WX    TMP DP  RH WIND       PRES   REMARKS
CRAIG          CLOUDY    12   7  80 CALM      30.32S
HAYDEN         MOCLDY    14   9  79 E5        30.30S WCI   6
MEEKER         MOCLDY     9   5  84 CALM      30.35S
MOUNT WERNER   NOT AVBL
STEAMBOAT SPGS MOCLDY    10   7  88 CALM      30.29F
WALDEN         PTCLDY    14   9  79 S10       30.17F WCI   1
$$

COZ006>008-011-251000-
...WEST CENTRAL VALLEYS...

CITY           SKY/WX    TMP DP  RH WIND       PRES   REMARKS
GRAND JUNCTION PTCLDY    21  16  81 SE9       30.41R WCI  11
MONTROSE       CLEAR     17  11  77 SE8       30.42F WCI   7
EAGLE          CLOUDY     9   7  92 E3        30.38F
RIFLE          MOCLDY    13   9  84 E5        30.42S WCI   5
DELTA          CLEAR     20  15  81 CALM      30.44R
NUCLA          CLEAR     18  10  73 SE6       30.45R WCI   9
$$

COZ017>023-064>068-251000-
...SOUTHWEST COLORADO...

CITY           SKY/WX    TMP DP  RH WIND       PRES   REMARKS
DURANGO        CLEAR     15   7  70 CALM      30.35R
CORTEZ         CLEAR     14   9  80 E6        30.40S WCI   5
PAGOSA SPRINGS CLEAR     13   5  69 CALM      30.32S
TELLURIDE      NOT AVBL
WOLF CREEK PAS PTCLDY     9 -20  26 MISG      30.22R
$$

COZ009-010-012-014-032>034-037-058>063-251000-
...CENTRAL COLORADO...

CITY           SKY/WX    TMP DP  RH WIND       PRES   REMARKS
ASPEN          CLOUDY    15   8  73 SW8       30.32R WCI   4
BUENA VISTA    PTCLDY    12   4  70 N6        30.22F WCI   3
COPPER MTN     CLOUDY     7   0  72 W25G31    30.13S WCI -15
BERTHOUD PASS  CLOUDY    -2  -6  84 MISG      30.02F
COTTONWOOD PAS PTCLDY    19  -4  35 W20G32    30.15F WCI   4
GUNNISON       PTCLDY    -2  -2 100 CALM      30.37S
KREMMLING      MOCLDY    19  10  68 W10       30.30R WCI   8
LEADVILLE      LGT SNOW   6   1  80 N8        30.22R WCI  -7
MONARCH PASS   CLOUDY     1  -4  78 MISG      30.21F
SALIDA         PTCLDY    19   5  56 NW9       30.32S WCI   7
SUNLIGHT       CLOUDY   N/A N/A N/A CALM      30.26R
WILKERSON PASS NOT AVBL
$$

COZ069>075-251000-
...SAN LUIS VALLEY/SANGRE DE CRISTO MOUNTAINS...

CITY           SKY/WX    TMP DP  RH WIND       PRES   REMARKS
ALAMOSA        PTCLDY     3  -4  72 SW6       30.30S WCI  -8
LA VETA PASS   CLEAR      9   3  78 MISG      30.14S
SAGUACHE       NOT AVBL
$$

COZ035-036-038>040-251000-
...NORTHERN COLORADO FRONT RANGE...

CITY           SKY/WX    TMP DP  RH WIND       PRES   REMARKS
DENVER INTL AP PTCLDY    24  10  55 SW14      30.14F WCI  12
DMNS CITY PARK   N/A     25   7  45 S3G10     30.17R
AURORA         PTCLDY    21  10  62 S10       30.15F WCI   9
FRONT RANGE AP PTCLDY    27  14  59 S20G25    30.15F WCI  13
ERIE MUNI ARPT CLEAR     27  10  48 W8        30.15R WCI  19
BOULDER MUN AP CLEAR     32   5  32 SW12      30.14S WCI  23
CENTENNIAL     PTCLDY    22   7  52 SW8       30.14F WCI  12
BROOMFIELD     CLEAR     32   7  34 W22G31    30.15R WCI  19
FORT COLLINS   CLEAR     19  10  68 CALM      30.15S
LONGMONT       CLEAR     19  12  74 CALM      30.16S
$$

COZ041-046-047-076>085-087-088-251000-
...PIKES PEAK/PALMER DIVIDE AND SOUTHERN FOOTHILLS...

CITY           SKY/WX    TMP DP  RH WIND       PRES   REMARKS
COLO. SPRINGS  PTCLDY    17   8  67 N7        30.18F WCI   8
A. F. ACADEMY  PTCLDY    21   4  49 E6        30.15F WCI  13
ELLICOTT       NOT AVBL
FALCON         NOT AVBL
FORT CARSON    PTCLDY    17   8  70 NW8       30.17F WCI   6
LIMON          PTCLDY    15   9  76 N5        30.19S WCI   8
MONUMENT HILL  PTCLDY    18   5  57 SW12      30.13F WCI   5
TRINIDAD       CLEAR     21  15  78 SW16      30.24F WCI   7
$$

COZ042>045-048>051-090-091-251000-
...NORTHEAST COLORADO...

CITY           SKY/WX    TMP DP  RH WIND       PRES   REMARKS
GREELEY ARPT   PTCLDY    18   9  68 CALM      30.16F
AKRON          PTCLDY    19  14  81 SW12      30.16S WCI   7
BURLINGTON     CLEAR     18  12  77 W8        30.19S WCI   8
WRAY           CLEAR     18  16  90 SW9       30.17F WCI   7
STERLING       MOCLDY    21  18  86 S7        30.16S WCI  13
HOLYOKE        CLEAR     25  19  80 W10       30.15S WCI  15
FORT MORGAN    PTCLDY    17  13  84 CALM      30.17F
$$

COZ086-089-092>099-251000-
...SOUTHEAST COLORADO...

CITY           SKY/WX    TMP DP  RH WIND       PRES   REMARKS
PUEBLO         CLEAR     20  16  84 CALM      30.22F
LA JUNTA       CLEAR     26  19  74 W12       30.25S WCI  16
LAMAR          CLEAR     21  17  84 W7        30.24S WCI  12
SPRINGFIELD      N/A     23  18  81 W13       30.23F WCI  11
$$


USA.gov is the U.S. government's official web portal to all federal, state and local government web resources and services.